GW0557 Weather Reports


time (UTC)temp
C
wind
direction
speed
KPH
gust
KPH
rain 1hr
cm
rain 24hr
cm
rain mn
cm
humidity
%
barometer
mb
20260906064602 21 27 8.0 16.1 0.00 0.00 0.00 88 1015.5
20260906063102 21 39 8.0 14.5 0.00 0.00 0.00 90 1015.2
20260906061603 21 18 8.0 12.9 0.00 0.00 0.00 91 1015.3
20260906054607 21 61 4.8 8.0 0.00 0.00 0.00 90 1015.0
20260906053101 21 28 3.2 8.0 0.00 0.00 0.00 90 1015.0
20260906051608 21 29 4.8 8.0 0.00 0.00 0.00 90 1015.1
20260906044605 22 23 6.4 14.5 0.00 0.00 0.00 89 1014.8
20260906043100 22 30 9.7 16.1 0.00 0.00 0.00 89 1014.9
20260906041610 22 31 9.7 16.1 0.00 0.00 0.00 88 1014.8
20260906040118 23 49 9.7 14.5 0.00 0.00 0.00 88 1014.9
20260906034606 23 26 8.0 16.1 0.00 0.00 0.00 89 1014.8
20260906033107 23 46 6.4 16.1 0.00 0.00 0.00 88 1014.7
20260906031559 23 38 6.4 14.5 0.00 0.00 0.00 89 1014.6
20260906030110 23 76 6.4 14.5 0.00 0.00 0.00 88 1014.6
20260906024627 23 49 11.3 17.7 0.00 0.00 0.00 88 1014.2
20260906023103 23 62 6.4 14.5 0.00 0.00 0.00 88 1014.1
20260906021611 23 79 4.8 9.7 0.00 0.00 0.00 87 1014.1
20260906014612 24 323 1.6 4.8 0.00 0.00 0.00 86 1013.8
20260906013103 25 323 1.6 4.8 0.00 0.00 0.00 85 1013.7
20260906011602 25 0 1.6 4.8 0.00 0.00 0.00 85 1013.5
20260906010120 25 0 0.0 3.2 0.00 0.00 0.00 86 1013.3
20260906004607 25 0 0.0 0.0 0.00 0.00 0.00 85 1013.2
20260906003120 25 0 0.0 0.0 0.00 0.00 0.00 84 1012.8
20260906001606 25 31 1.6 3.2 0.00 0.00 0.00 83 1012.8
20260906000109 26 30 3.2 6.4 0.00 0.00 0.00 82 1012.8
20260905234607 26 40 3.2 6.4 0.00 0.00 0.00 82 1013.0
20260905233102 27 12 3.2 8.0 0.00 0.00 0.00 82 1013.0
20260905231603 27 0 0.0 0.0 0.00 0.00 0.00 81 1012.7
20260905230111 27 0 0.0 0.0 0.00 0.00 0.00 80 1012.2
20260905224603 27 0 0.0 0.0 0.00 0.00 0.00 79 1012.1
20260905223103 27 0 0.0 0.0 0.00 0.00 0.00 78 1012.5
20260905221600 26 0 0.0 0.0 0.00 0.00 0.00 79 1012.5
20260905220109 26 0 0.0 0.0 0.00 0.00 0.00 78 1012.0
20260905214600 26 0 0.0 0.0 0.00 0.00 0.00 77 1012.3
20260905213105 26 0 1.6 6.4 0.00 0.00 0.00 76 1012.8
20260905211558 27 0 0.0 3.2 0.00 0.00 0.00 74 1012.2
20260905210108 28 238 0.0 4.8 0.00 0.00 0.00 73 1012.4
20260905204611 30 0 0.0 0.0 0.00 0.00 0.00 74 1012.3
20260905203107 30 0 0.0 1.6 0.00 0.00 0.00 73 1012.5
20260905201606 30 0 0.0 1.6 0.00 0.00 0.00 70 1012.5
20260905200107 31 0 0.0 1.6 0.00 0.00 0.00 69 1012.9
20260905194607 31 0 0.0 3.2 0.00 0.00 0.00 68 1012.6
20260905193111 32 0 0.0 4.8 0.00 0.00 0.00 65 1013.0
20260905191611 32 247 1.6 9.7 0.00 0.00 0.00 64 1013.1
20260905190104 32 279 0.0 8.0 0.00 0.00 0.00 63 1013.3
20260905184613 32 202 0.0 8.0 0.00 0.00 0.00 64 1013.4
20260905183107 32 0 0.0 8.0 0.00 0.00 0.00 65 1013.7
20260905181608 31 222 1.6 9.7 0.00 0.00 0.00 66 1013.9
20260905180108 31 210 3.2 9.7 0.00 0.00 0.00 64 1013.9
20260905174604 31 232 1.6 4.8 0.00 0.00 0.00 66 1014.2
20260905173101 30 190 1.6 9.7 0.00 0.00 0.00 66 1014.2
20260905171601 30 175 3.2 9.7 0.00 0.00 0.00 67 1014.3
20260905170114 29 205 1.6 8.0 0.00 0.00 0.00 68 1014.5
20260905164606 28 175 3.2 9.7 0.00 0.00 0.00 67 1014.6
20260905163100 28 231 3.2 9.7 0.00 0.00 0.00 70 1014.8
20260905161600 28 200 3.2 8.0 0.00 0.00 0.00 68 1014.7
20260905160104 28 235 3.2 12.9 0.00 0.00 0.00 69 1014.9
20260905154605 27 198 3.2 12.9 0.00 0.00 0.00 71 1014.7
20260905153100 27 185 4.8 17.7 0.00 0.00 0.00 71 1014.7
20260905151606 26 267 6.4 19.3 0.00 0.00 0.00 72 1014.6
20260905150105 26 191 6.4 12.9 0.00 0.00 0.00 72 1014.9
20260905144602 25 169 6.4 16.1 0.00 0.00 0.00 74 1015.0
20260905143112 25 188 4.8 22.5 0.00 0.00 0.00 75 1014.7
20260905141605 24 202 6.4 14.5 0.00 0.00 0.00 76 1015.0
20260905140101 23 209 3.2 16.1 0.00 0.00 0.00 78 1015.0
20260905134603 23 218 4.8 11.3 0.00 0.00 0.00 78 1014.9
20260905133058 23 0 3.2 12.9 0.00 0.00 0.00 80 1015.0
20260905131559 22 217 3.2 9.7 0.00 0.00 0.00 80 1015.1
20260905124602 22 184 4.8 12.9 0.00 0.00 0.00 81 1015.0
20260905123105 22 212 6.4 17.7 0.00 0.00 0.00 81 1015.1
20260905121601 22 190 3.2 8.0 0.00 0.00 0.00 83 1015.0
20260905120107 21 205 0.0 8.0 0.00 0.00 0.00 83 1015.0
20260905114605 22 74 3.2 12.9 0.00 0.00 0.00 82 1014.6
20260905113106 22 94 6.4 17.7 0.00 0.00 0.00 82 1014.7
20260905111646 22 9 4.8 11.3 0.00 0.00 0.00 89 1014.3
20260905110059 22 0 0.0 0.0 0.00 0.00 0.00 89 1014.0
20260905104601 22 0 0.0 0.0 0.00 0.00 0.00 89 1013.6
20260905103105 22 0 0.0 0.0 0.00 0.00 0.00 87 1013.6
20260905101603 23 0 0.0 0.0 0.00 0.00 0.00 87 1013.8
20260905100110 23 0 0.0 0.0 0.00 0.00 0.00 86 1013.4
20260905094604 23 0 0.0 0.0 0.00 0.00 0.00 87 1013.5
20260905093104 23 0 0.0 0.0 0.00 0.00 0.00 86 1013.6
20260905091610 23 0 0.0 0.0 0.00 0.00 0.00 86 1013.5
20260905090104 23 0 0.0 0.0 0.00 0.00 0.00 86 1013.5
20260905084603 23 0 0.0 0.0 0.00 0.00 0.00 86 1013.7
20260905083102 23 0 0.0 0.0 0.00 0.00 0.00 86 1013.5
20260905081605 23 0 0.0 0.0 0.00 0.00 0.00 86 1013.4
20260905080107 23 0 0.0 0.0 0.00 0.00 0.00 87 1013.2
20260905074558 23 0 0.0 0.0 0.00 0.00 0.00 87 1012.9
20260905073103 23 0 0.0 0.0 0.00 0.00 0.00 87 1013.0
20260905071605 23 0 0.0 0.0 0.00 0.00 0.00 87 1013.1
20260905070105 23 0 0.0 0.0 0.00 0.00 0.00 87 1013.2